Flag Weather past 2 weeks in Lage, North Rhine-Westphalia, Germany

Now
45 °F

Sunny.


Feels Like: 45 °F
Forecast: 35 / 46 °F
Wind: 2 mph from West

Location: Bad Lippspringe

Current Time: Nov 24, 2014 at 4:21:26 PM

Latest Report: Nov 24, 2014 at 4:00 PM


Visibility: N/A

Pressure: 30.30 "Hg

Humidity: 78%

Dew point: 39 °F

Location of LageLocation

Historic Weather in Lage — Graph

°F

Lage temperature yesterday

Maximum temperature yesterday: 55 °F (at 2:00 PM)
Minimum temperature yesterday: 42 °F (at 7:00 AM)
Average temperature yesterday: 50 °F

Past Weeks' High & Low Weather Summary

 TemperatureHumidityPressure
High57 °F (Nov 12, 3:00 PM)99% (Nov 16, 7:00 AM)30.37 "Hg (Nov 16, 7:00 AM)
Low39 °F (Nov 21, 5:00 AM)66% (Nov 23, 11:00 AM)29.50 "Hg (Nov 16, 6:00 AM)
Average47 °F85%29.92 "Hg
* Reported Nov 9 3:00 PM — Nov 24 3:00 PM, Lage, Weather by CustomWeather, © 2014

Note: Actual official high and low records may vary slightly from our data, if they occured in-between our weather recording intervals... More about our weather records

Advertising

Lage weather history for previous 24 hours

 ConditionsComfort  
Time TempWeatherWind HumidityBarometerVisibility
3:00 PM
Nov 24
47 °FPassing clouds.3 mph76%30.28 "HgN/A
2:00 PM46 °FScattered clouds.3 mph77%30.27 "HgN/A
1:00 PM47 °FOvercast.1 mph81%30.27 "HgN/A
12:00 PM46 °FOvercast.2 mph86%30.26 "HgN/A
11:00 AM45 °FLow clouds.3 mph92%30.26 "HgN/A
10:00 AM45 °FLow clouds.3 mph91%30.24 "HgN/A
9:00 AM46 °FLow clouds.5 mph93%30.21 "HgN/A
8:00 AM48 °FLight freezing rain. Low clouds.5 mph95%30.16 "HgN/A
7:00 AM48 °FLight freezing rain. Overcast.1 mph96%30.12 "HgN/A
6:00 AM49 °FLight rain. Low clouds.5 mph93%30.11 "HgN/A
5:00 AM52 °FDrizzle. Low clouds.6 mph94%30.05 "HgN/A
4:00 AM52 °FLight rain. Overcast.2 mph85%30.01 "HgN/A
3:00 AM53 °FOvercast.2 mph79%30.02 "HgN/A
2:00 AM52 °FOvercast.2 mph78%30.01 "HgN/A
1:00 AM53 °FOvercast.3 mph72%30.01 "HgN/A
12:00 AM53 °FOvercast.3 mph72%30.00 "HgN/A
11:00 PM
Nov 23
52 °FOvercast.2 mph72%30.00 "HgN/A
10:00 PM51 °FOvercast.6 mph72%30.00 "HgN/A
9:00 PM51 °FClear.6 mph70%30.02 "HgN/A
8:00 PM50 °FClear.5 mph72%30.03 "HgN/A
7:00 PM51 °FClear.3 mph72%30.03 "HgN/A
6:00 PM52 °FPassing clouds.6 mph69%30.03 "HgN/A
5:00 PM53 °FPassing clouds.6 mph69%30.04 "HgN/A
4:00 PM53 °FSunny.6 mph72%30.06 "HgN/A
Weather by CustomWeather, © 2014

See weather overviewHow to use our weather pages